Wetbulb
62.92 55.56 58.74 54.98 45.60 48.79 46.65 52.13 59.41 58.61 59.46 63.78 64.23 62.69 61.44 61.65 57.75 50.90 66.57 71.42 73.96 74.54 75.78 75.57 76.33 76.75 76.68 75.47 74.94 75.75 76.10 76.30 75.88 75.68 75.55 75.78 76.00 75.57 75.50 75.98 75.65 74.72 74.77 75.00 74.96 74.93 74.83 74.74 74.51
59.17 55.16 50.75 47.11 41.44 37.55 41.98 53.86 55.08 59.23 61.34 64.47 64.10 62.81 61.09 57.56 66.25 66.86 68.21 73.26 73.97 74.70 75.05 74.95 76.78 76.93 76.81 75.93 75.60 76.18 76.03 76.00 75.63 75.68 75.65 75.93 76.05 75.95 76.00 76.48 75.72 74.64 74.55 74.38 74.45 74.23 74.08 73.87 73.93
57.44 55.36 47.39 44.02 38.87 38.87 45.94 53.86 54.89 59.93 64.76 63.53 60.46 63.77 63.67 60.81 67.01 67.07 70.30 73.38 74.03 74.00 74.84 75.07 77.08 77.01 76.81 75.78 75.88 76.28 76.10 75.85 75.53 75.48 75.43 75.58 75.65 75.83 76.05 76.15 76.18 75.26 74.51 74.24 73.88 73.72 73.92 74.24 74.19
52.12 49.44 46.66 40.60 37.36 43.05 50.15 53.54 58.84 57.60 62.85 63.33 63.34 61.62 64.59 66.74 67.94 69.79 72.37 73.56 73.41 73.81 74.84 76.68 77.28 77.16 76.76 76.28 76.33 76.42 76.18 75.78 75.53 75.38 75.18 75.00 74.83 74.88 75.25 75.23 75.33 75.33 74.85 74.79 74.42 74.27 74.23 74.20 74.16
50.79 43.94 39.60 37.90 38.62 43.78 49.96 53.20 56.88 55.84 58.62 62.15 63.15 61.27 60.54 68.86 71.14 71.36 71.46 72.66 72.66 73.86 75.16 76.03 77.25 77.10 76.98 76.10 76.23 76.42 76.42 76.24 75.92 75.30 74.83 74.47 74.20 74.35 74.75 74.75 74.47 73.91 73.81 73.97 73.91 73.95 74.37 74.15 74.09
45.60 43.03 38.13 36.07 40.17 44.63 49.36 51.44 52.88 54.78 61.96 62.05 61.53 60.91 60.38 69.74 69.52 69.74 71.34 71.87 73.45 73.65 74.68 75.30 76.83 76.93 76.63 76.28 76.43 76.34 76.07 75.84 75.82 75.37 75.05 74.83 74.33 74.33 74.65 74.90 74.72 74.36 73.99 73.73 73.36 73.87 73.50 72.85 72.32
43.01 40.66 38.00 38.31 41.71 44.25 49.31 51.32 55.64 60.02 60.46 61.49 63.35 59.02 60.88 66.93 69.54 69.93 71.12 72.17 73.04 73.87 74.16 74.84 75.16 75.95 76.55 76.33 76.27 76.07 75.71 75.46 75.22 75.00 74.72 74.67 74.23 74.68 74.98 75.37 74.73 74.23 74.05 73.70 73.45 72.92 72.32 71.99 71.75
44.69 41.98 38.28 37.91 41.03 43.17 48.58 56.53 56.81 62.35 61.15 65.88 64.49 59.67 55.61 60.46 68.81 69.09 71.75 71.16 71.46 72.87 73.30 73.59 73.89 73.85 73.83 74.15 76.07 75.84 75.49 75.27 75.05 74.80 74.62 74.48 74.50 74.48 75.10 75.42 74.91 73.75 73.38 72.82 72.87 72.59 72.17 71.85 71.68
45.20 40.18 37.45 39.34 42.40 43.55 46.31 58.54 62.57 64.23 61.50 62.21 63.62 62.79 63.29 62.06 64.72 70.03 69.60 68.93 69.66 71.09 71.67 71.85 71.44 71.83 72.41 72.52 73.94 75.22 74.51 74.60 74.90 74.50 74.45 73.02 70.43 71.41 72.99 74.57 74.37 73.90 73.38 72.95 72.37 72.07 71.85 71.68 71.75
43.24 38.58 40.65 44.41 44.40 42.45 44.83 51.31 59.56 61.16 60.11 59.34 60.79 65.54 66.05 62.60 64.23 68.46 68.10 66.83 67.53 68.41 69.82 70.82 71.08 70.79 71.39 72.89 71.56 72.04 71.87 71.81 71.58 71.30 70.53 69.09 67.72 67.55 70.68 72.73 74.45 74.70 74.43 73.43 72.60 72.27 72.02 71.60 66.83
41.57 41.42 43.58 46.20 46.19 46.36 44.88 46.82 57.07 59.31 56.39 58.19 58.85 63.49 64.81 63.05 60.59 61.87 66.56 67.45 67.04 67.74 68.63 69.81 70.48 70.27 69.99 70.22 71.51 71.27 70.97 71.11 70.83 70.34 69.47 68.48 68.39 67.25 68.64 67.79 69.46 70.75 72.68 68.92 70.61 69.78 69.60 67.34 66.26
46.86 45.81 46.39 47.33 46.05 45.76 45.28 46.80 49.84 59.07 60.18 61.87 61.76 63.83 64.26 63.97 65.21 66.74 65.78 61.98 65.49 65.89 67.41 68.80 69.27 69.22 68.78 69.76 71.62 70.79 70.79 70.76 70.13 69.72 69.11 68.15 66.93 66.66 67.26 67.25 68.10 67.66 66.29 66.33 65.08 65.08 65.09 65.45 65.51
44.14 45.24 46.80 47.41 45.00 44.41 46.69 46.58 46.61 56.04 61.74 63.13 64.41 65.65 63.99 64.66 64.79 67.54 68.37 68.37 66.50 65.07 65.69 67.12 67.98 68.03 68.09 69.32 70.06 68.83 69.51 70.31 69.82 69.27 69.43 69.38 67.50 66.53 67.63 68.02 66.74 66.11 64.96 64.48 63.28 64.04 64.54 63.69 64.61
46.06 45.57 45.00 45.76 44.72 51.82 44.75 45.31 47.01 53.98 61.08 64.04 64.43 63.24 63.06 64.03 65.45 66.33 66.43 65.66 65.86 67.64 67.23 66.89 66.66 66.47 66.89 68.92 68.56 67.68 68.89 69.64 69.08 69.49 69.71 70.12 69.53 69.19 68.17 67.59 66.97 65.73 65.25 65.07 64.68 63.53 64.80 65.33 64.92
46.11 43.41 45.46 45.25 44.64 44.10 46.56 44.56 44.90 53.02 62.31 62.73 62.14 61.22 60.73 61.11 61.92 62.21 63.58 64.40 64.92 66.66 69.26 69.29 68.26 67.05 67.36 68.08 67.76 67.41 67.87 69.20 69.00 69.25 69.72 70.15 70.31 69.34 69.34 67.64 67.63 67.83 66.19 66.07 65.76 64.95 65.88 65.78 66.58
44.43 42.09 38.83 43.94 45.81 46.72 45.41 40.83 46.94 53.06 61.59 60.54 60.88 60.29 59.28 59.25 60.24 61.41 62.90 63.69 63.96 65.42 66.25 65.82 69.01 68.79 68.68 68.68 70.30 71.03 69.90 68.37 68.55 68.52 69.62 70.07 70.52 70.20 68.62 68.63 66.71 67.84 66.90 67.20 66.54 66.80 66.84 67.09 66.22
40.75 37.98 38.86 42.82 45.19 46.77 44.53 41.67 49.23 61.21 61.10 59.83 59.49 58.92 58.16 57.54 58.48 60.43 61.50 61.92 62.91 64.14 65.34 64.10 62.73 65.01 66.58 66.31 68.34 69.24 70.92 71.41 70.89 69.75 70.00 70.07 70.44 70.99 68.74 69.07 68.03 67.04 66.35 65.02 64.85 66.61 65.92 65.87 67.38
39.02 39.40 40.83 40.57 43.59 46.10 43.21 43.79 48.50 59.28 59.26 57.64 57.42 57.22 56.61 55.98 56.25 58.78 59.76 60.39 61.19 62.37 63.44 64.33 65.02 63.71 64.29 66.99 67.29 67.60 69.44 70.86 71.38 70.54 70.78 71.55 71.19 70.65 68.81 69.38 67.78 66.68 65.92 65.71 66.01 64.63 68.55 67.09 67.35
43.84 42.14 41.66 44.85 47.12 45.71 43.67 44.19 54.79 57.19 56.24 55.08 54.60 54.10 54.63 54.48 55.67 57.61 58.27 58.93 59.20 59.86 60.14 60.93 62.84 62.83 64.31 64.80 62.82 63.20 67.01 70.24 69.82 70.86 71.01 70.54 71.47 70.97 68.95 67.29 67.67 67.40 66.29 67.32 66.67 65.99 69.18 67.49 67.16
44.89 42.92 42.28 45.01 47.36 44.59 42.55 44.27 51.97 55.52 54.49 54.28 53.30 52.60 52.72 52.47 52.51 54.60 54.98 56.10 57.07 57.17 58.19 58.57 59.58 61.49 62.06 65.12 67.02 70.27 68.10 68.75 68.42 68.48 68.17 69.13 70.63 70.74 69.76 68.41 67.81 67.18 67.31 67.86 68.23 68.08 67.07 65.37 65.48
42.01 41.84 41.54 42.61 45.69 43.69 41.55 39.55 50.79 53.74 53.99 53.75 53.19 53.10 52.92 51.31 50.67 51.95 52.74 52.54 54.39 55.88 56.28 56.95 57.54 58.60 59.66 62.79 64.41 64.83 64.97 64.89 64.11 65.62 66.00 66.50 69.52 67.58 66.61 66.98 66.25 66.62 68.53 68.42 67.15 65.55 64.90 64.14 64.90
40.00 45.42 45.32 44.18 40.16 36.29 41.46 32.73 44.77 50.41 50.18 51.32 50.49 50.86 51.04 51.05 51.45 52.39 52.23 51.06 51.69 52.37 55.61 55.51 55.38 56.36 58.63 59.14 59.19 59.61 60.34 59.58 61.73 63.69 64.58 64.97 66.26 67.13 67.72 67.56 67.27 65.28 67.70 63.67 62.40 62.74 61.70 63.02 61.96
44.07 46.24 44.37 44.01 38.89 35.52 37.33 33.26 36.48 49.25 47.36 48.44 49.74 51.04 51.27 51.42 51.42 51.80 52.47 52.32 51.72 52.06 52.66 54.89 55.04 55.14 56.85 58.07 58.09 58.00 58.09 59.98 60.48 61.12 61.67 63.12 64.27 64.25 65.79 66.12 64.45 64.60 62.70 62.32 62.09 61.96 62.75 64.44 63.86
48.00 44.24 42.96 39.65 35.96 31.45 34.96 36.06 37.34 44.40 47.33 48.66 50.59 51.04 52.03 52.11 52.05 52.20 52.95 53.44 53.17 53.49 53.16 53.75 54.97 55.03 55.50 56.27 56.59 57.79 58.98 58.69 58.99 58.98 59.90 60.42 61.14 61.43 61.64 63.30 64.65 66.09 65.75 64.49 63.06 62.29 62.15 61.97 62.34
44.09 38.00 31.32 30.83 30.37 31.33 39.16 38.66 38.08 48.44 50.40 50.43 49.94 51.06 51.70 52.30 51.30 50.99 51.10 51.92 52.09 52.22 52.34 53.00 51.58 51.00 52.67 53.37 53.29 53.60 55.60 56.74 56.18 58.46 59.08 59.53 59.94 60.64 61.44 62.32 62.24 62.78 63.91 64.42 63.81 62.40 62.50 62.23 61.09
40.59 38.01 32.27 27.68 27.80 32.43 40.79 37.69 41.29 50.85 51.96 52.20 52.40 51.56 51.77 51.03 50.65 50.38 50.56 51.27 51.89 50.98 51.79 51.24 49.40 48.63 49.23 49.99 49.98 51.37 52.31 52.60 53.54 53.83 54.52 56.06 57.58 59.68 59.85 60.84 61.75 61.84 62.75 63.36 63.57 62.13 61.52 61.25 61.58
41.29 36.96 40.09 35.14 33.65 31.03 35.15 42.10 47.69 50.42 50.18 50.91 50.45 50.77 49.83 50.20 50.06 50.48 50.60 50.49 50.33 49.66 49.16 48.68 48.38 48.46 48.95 49.39 48.91 49.52 50.48 51.43 51.32 51.64 51.62 52.55 53.31 54.95 56.48 57.34 57.85 59.15 60.21 62.18 63.80 62.47 62.28 62.41 62.24
42.74 43.90 35.79 33.19 27.89 27.07 33.06 37.14 38.71 46.08 47.43 49.46 49.80 49.06 49.32 50.07 50.30 50.23 50.05 49.62 49.51 49.18 47.81 48.01 48.79 48.43 49.00 48.77 49.57 50.32 50.66 51.02 51.05 51.71 51.54 52.04 52.46 52.75 53.38 54.16 55.21 56.24 57.43 58.72 60.55 60.46 61.05 61.21 61.68
40.07 38.40 38.63 35.86 34.21 28.74 27.36 33.24 44.73 45.34 48.41 48.89 49.80 50.92 50.06 50.37 50.67 49.99 50.13 50.86 49.59 49.00 47.91 47.27 47.90 47.29 47.93 48.82 49.32 49.69 50.09 51.44 50.68 50.69 51.89 51.14 52.25 52.40 53.34 54.20 54.58 55.11 56.15 56.76 57.35 59.58 60.24 59.13 58.66
44.19 40.58 38.09 32.04 31.77 33.82 33.07 33.03 46.91 47.51 47.11 49.54 50.37 52.23 51.78 51.54 51.62 51.04 50.83 51.33 49.00 47.64 47.97 47.49 47.43 47.30 48.29 48.64 49.04 49.59 49.49 49.83 49.79 50.15 51.05 51.55 51.55 51.63 52.97 53.09 53.34 54.26 55.67 55.90 56.16 57.79 57.39 56.33 56.53
MSLP
1010.17 1010.02 1010.38 1010.91 1012.35 1012.87 1012.27 1011.59 1010.89 1010.55 1010.36 1008.31 1007.98 1008.02 1007.12 1007.32 1008.30 1010.50 1010.64 1011.24 1012.03 1012.52 1013.07 1013.21 1013.24 1013.48 1013.79 1014.26 1014.61 1014.87 1014.75 1014.88 1014.99 1015.11 1015.35 1015.53 1015.71 1015.87 1015.91 1015.92 1016.03 1016.09 1016.09 1016.08 1016.07 1016.13 1016.26 1016.36 1016.39
1010.08 1009.93 1010.62 1011.25 1012.44 1012.82 1011.54 1010.24 1009.95 1008.89 1007.79 1007.12 1007.86 1007.56 1007.03 1007.81 1008.51 1010.04 1010.74 1011.54 1011.57 1012.01 1012.74 1013.20 1013.24 1013.44 1013.79 1014.16 1014.56 1014.88 1015.00 1015.06 1015.20 1015.26 1015.46 1015.67 1015.79 1015.96 1016.13 1016.15 1016.15 1016.23 1016.30 1016.28 1016.19 1016.13 1016.22 1016.39 1016.46
1010.02 1010.09 1011.34 1011.60 1012.36 1012.10 1010.52 1008.59 1007.93 1007.44 1007.49 1006.94 1007.03 1006.89 1007.08 1008.10 1009.10 1009.99 1010.32 1011.46 1011.60 1012.10 1012.49 1012.85 1013.20 1013.45 1013.74 1014.21 1014.53 1014.74 1015.14 1015.18 1015.29 1015.41 1015.61 1015.80 1015.87 1015.97 1016.12 1016.19 1016.23 1016.23 1016.29 1016.37 1016.39 1016.35 1016.30 1016.33 1016.41
1010.01 1010.82 1011.70 1012.03 1012.39 1010.62 1008.97 1006.96 1006.67 1007.33 1007.24 1006.73 1006.23 1007.22 1007.35 1007.37 1008.27 1009.33 1010.77 1011.53 1011.99 1012.47 1012.73 1012.77 1013.04 1013.41 1013.77 1013.97 1014.42 1014.76 1015.05 1015.35 1015.40 1015.50 1015.62 1015.82 1015.94 1015.99 1016.03 1016.09 1016.19 1016.26 1016.27 1016.29 1016.39 1016.50 1016.45 1016.36 1016.37
1010.33 1011.47 1012.09 1012.10 1011.40 1009.48 1007.41 1005.86 1006.66 1006.43 1006.90 1006.77 1006.47 1007.62 1008.00 1008.70 1008.66 1009.54 1011.01 1011.81 1012.09 1012.73 1012.95 1013.12 1013.22 1013.43 1013.80 1014.15 1014.40 1014.82 1015.02 1015.19 1015.33 1015.51 1015.66 1015.80 1015.92 1016.01 1016.08 1016.11 1016.08 1016.18 1016.30 1016.28 1016.25 1016.34 1016.43 1016.40 1016.26
1010.89 1011.74 1012.44 1012.18 1010.29 1008.20 1006.36 1005.38 1005.40 1005.82 1006.76 1007.01 1007.00 1007.90 1009.19 1009.55 1009.21 1010.52 1011.14 1011.98 1012.38 1012.57 1013.02 1013.24 1013.48 1013.61 1013.71 1014.00 1014.39 1014.80 1015.09 1015.31 1015.46 1015.53 1015.58 1015.65 1015.85 1015.93 1016.03 1016.09 1016.03 1015.97 1016.09 1016.19 1016.20 1016.14 1016.15 1016.20 1016.09
1011.02 1012.05 1012.20 1011.17 1009.89 1008.03 1006.34 1005.07 1005.69 1006.31 1006.81 1007.07 1006.94 1008.31 1009.78 1010.11 1010.01 1010.51 1011.32 1012.13 1012.61 1012.90 1013.37 1013.68 1013.83 1013.83 1014.06 1014.25 1014.47 1014.87 1014.99 1015.27 1015.36 1015.53 1015.63 1015.66 1015.80 1015.89 1015.88 1015.95 1015.99 1015.94 1015.89 1015.94 1015.99 1016.03 1016.04 1015.97 1015.76
1010.39 1011.44 1011.58 1010.85 1009.65 1008.28 1006.88 1006.36 1006.74 1006.26 1007.20 1006.99 1007.83 1008.50 1009.75 1010.18 1010.72 1011.15 1012.05 1012.52 1012.84 1013.22 1013.69 1014.11 1014.43 1014.52 1014.65 1014.67 1014.62 1014.89 1015.00 1015.29 1015.44 1015.52 1015.61 1015.71 1015.68 1015.74 1015.82 1015.84 1015.90 1015.93 1015.87 1015.80 1015.81 1015.80 1015.71 1015.65 1015.67
1009.67 1010.93 1011.22 1010.31 1008.96 1008.26 1007.30 1006.90 1007.13 1007.28 1007.17 1007.84 1008.05 1008.35 1008.58 1009.33 1010.40 1011.41 1012.38 1013.11 1013.53 1013.70 1013.77 1014.20 1014.64 1014.86 1015.04 1015.39 1015.40 1015.61 1015.46 1015.40 1015.54 1015.60 1015.51 1015.63 1015.76 1015.80 1015.83 1015.77 1015.75 1015.75 1015.76 1015.70 1015.59 1015.59 1015.50 1015.48 1015.41
1009.68 1010.69 1010.09 1008.94 1008.00 1007.76 1007.61 1007.32 1007.31 1007.82 1007.89 1008.63 1008.64 1008.47 1008.57 1008.90 1010.31 1011.52 1012.51 1013.42 1014.16 1014.23 1014.49 1014.38 1014.55 1015.01 1015.29 1015.16 1015.63 1015.92 1015.92 1016.04 1016.07 1016.03 1016.00 1015.99 1015.94 1015.88 1015.77 1015.66 1015.54 1015.50 1015.57 1015.57 1015.53 1015.42 1015.38 1015.37 1015.24
1009.27 1009.44 1009.05 1008.23 1007.41 1006.82 1007.15 1007.59 1007.85 1007.80 1008.66 1008.58 1008.58 1008.49 1008.73 1009.94 1011.10 1012.04 1012.92 1012.73 1013.09 1013.83 1014.39 1014.35 1014.18 1014.41 1014.85 1014.92 1015.35 1015.55 1015.72 1015.81 1015.99 1016.21 1016.36 1016.35 1016.30 1016.23 1015.97 1015.91 1015.70 1015.54 1015.30 1015.49 1015.44 1015.38 1015.30 1015.20 1015.17
1008.94 1008.08 1007.93 1007.47 1006.96 1006.69 1006.94 1007.56 1007.90 1007.86 1008.01 1007.60 1008.26 1008.78 1010.86 1011.64 1012.02 1012.52 1013.09 1013.33 1014.10 1014.01 1014.13 1014.24 1014.33 1014.40 1014.44 1014.48 1015.05 1015.18 1015.29 1015.42 1015.51 1015.66 1015.88 1016.28 1016.48 1016.55 1016.29 1016.01 1015.82 1015.81 1015.62 1015.57 1015.51 1015.43 1015.13 1015.16 1014.92
1008.36 1007.63 1007.36 1006.95 1006.84 1006.63 1006.78 1006.81 1007.93 1008.17 1008.11 1008.62 1009.94 1011.06 1012.23 1012.64 1012.78 1012.89 1013.12 1013.12 1013.76 1014.45 1014.05 1013.94 1013.88 1013.94 1013.76 1014.31 1014.44 1014.75 1014.96 1015.07 1015.07 1015.30 1015.39 1015.76 1016.01 1016.19 1016.07 1015.78 1015.67 1015.70 1015.46 1015.42 1015.47 1015.38 1015.21 1015.02 1014.83
1008.13 1007.75 1007.48 1007.18 1006.95 1006.64 1006.96 1007.24 1007.63 1008.71 1009.49 1010.90 1011.60 1013.01 1013.30 1013.58 1014.03 1014.18 1013.84 1013.61 1013.84 1014.95 1015.36 1014.50 1014.41 1014.90 1014.51 1014.00 1014.28 1014.48 1014.28 1014.51 1014.83 1014.85 1014.81 1015.05 1015.15 1015.22 1015.37 1015.39 1015.50 1015.45 1015.14 1014.79 1015.04 1015.06 1015.08 1014.68 1014.47
1008.24 1008.03 1007.57 1007.38 1007.22 1007.03 1006.86 1007.79 1008.01 1008.62 1011.04 1012.28 1013.43 1014.31 1014.62 1015.24 1014.87 1015.01 1014.68 1015.12 1015.08 1015.18 1015.32 1014.32 1013.80 1013.94 1014.47 1014.63 1014.24 1014.08 1014.29 1013.96 1014.29 1014.29 1014.22 1014.40 1014.68 1014.74 1014.75 1014.89 1015.00 1014.81 1014.76 1014.56 1014.68 1014.83 1014.72 1014.78 1014.42
1008.92 1008.91 1009.07 1007.76 1007.55 1007.41 1007.66 1008.44 1008.15 1009.70 1011.21 1013.55 1014.41 1015.21 1015.70 1016.30 1016.30 1016.01 1015.75 1015.47 1015.78 1015.93 1015.12 1014.68 1013.78 1013.90 1014.04 1014.34 1014.46 1014.63 1014.63 1014.66 1013.96 1014.01 1014.03 1013.97 1014.03 1014.14 1014.31 1014.51 1014.52 1014.25 1014.44 1014.42 1014.58 1014.74 1014.67 1014.53 1014.31
1010.39 1010.13 1009.71 1008.44 1007.67 1007.72 1008.40 1009.15 1010.16 1010.26 1011.82 1014.45 1015.52 1016.34 1017.22 1017.60 1017.78 1017.85 1017.90 1018.25 1017.76 1016.29 1015.65 1015.29 1014.67 1014.70 1014.41 1014.57 1013.94 1013.09 1013.51 1014.08 1014.13 1013.27 1013.19 1013.47 1013.68 1013.56 1014.10 1013.89 1013.73 1013.77 1014.14 1014.38 1014.44 1014.48 1014.39 1014.48 1014.14
1010.84 1010.30 1009.51 1008.76 1008.25 1008.13 1008.96 1009.91 1011.08 1013.19 1013.91 1015.15 1016.66 1017.69 1018.22 1018.82 1019.39 1019.53 1019.19 1018.15 1017.28 1016.74 1016.24 1016.27 1015.64 1015.55 1015.35 1014.73 1013.70 1013.17 1012.79 1012.84 1013.80 1013.64 1013.03 1012.88 1012.83 1013.14 1013.38 1013.53 1013.48 1013.50 1013.84 1013.86 1014.10 1014.24 1014.50 1014.48 1014.30
1009.89 1010.00 1009.93 1009.30 1008.87 1008.93 1009.72 1010.54 1012.39 1013.55 1014.81 1016.56 1017.57 1019.23 1020.02 1020.28 1020.31 1020.16 1019.37 1018.63 1018.27 1017.88 1017.17 1016.79 1016.74 1016.64 1016.19 1015.76 1014.80 1014.27 1014.08 1013.34 1013.74 1014.35 1013.66 1013.25 1012.73 1012.42 1012.75 1013.44 1014.08 1014.06 1014.21 1013.94 1013.98 1014.15 1014.49 1014.61 1014.79
1010.00 1010.27 1010.61 1010.04 1009.54 1009.87 1010.87 1012.28 1013.68 1014.90 1016.24 1017.25 1017.88 1018.45 1018.64 1019.02 1019.27 1019.48 1019.42 1019.11 1019.13 1018.58 1017.78 1017.30 1017.43 1017.20 1016.72 1016.31 1016.13 1015.43 1014.85 1014.87 1015.20 1015.04 1014.95 1014.05 1013.66 1013.11 1013.71 1014.39 1015.09 1015.41 1015.31 1014.42 1013.84 1014.22 1014.57 1015.04 1015.30
1010.49 1010.80 1011.21 1011.62 1011.22 1011.25 1011.77 1013.25 1014.74 1016.59 1017.45 1018.18 1018.60 1018.98 1019.16 1019.33 1019.26 1018.95 1018.53 1018.56 1018.80 1018.49 1018.49 1018.63 1018.61 1018.34 1017.84 1017.21 1016.45 1015.84 1015.67 1015.94 1016.06 1015.82 1015.51 1014.83 1013.93 1014.34 1014.32 1014.35 1015.18 1015.40 1015.92 1015.63 1015.71 1014.73 1014.75 1015.65 1015.77
1010.66 1011.02 1011.24 1011.77 1012.45 1012.70 1012.88 1015.25 1016.07 1017.26 1018.17 1018.55 1019.18 1019.30 1019.49 1019.33 1018.96 1018.76 1019.21 1019.35 1019.14 1019.31 1019.06 1018.93 1019.04 1018.91 1018.50 1018.01 1017.41 1016.99 1017.10 1016.98 1016.78 1016.57 1015.89 1015.33 1014.62 1014.57 1014.50 1013.61 1012.39 1014.98 1015.18 1015.89 1014.87 1015.27 1015.59 1015.52 1015.95
1010.83 1011.07 1011.63 1012.26 1013.16 1013.91 1014.17 1015.53 1016.89 1017.74 1018.66 1019.10 1019.39 1019.42 1019.52 1019.47 1019.34 1019.48 1019.61 1019.72 1019.86 1020.02 1019.76 1019.43 1019.06 1019.01 1018.90 1018.68 1018.29 1018.07 1017.88 1017.76 1017.36 1017.01 1016.11 1015.62 1015.34 1015.23 1014.51 1014.86 1015.51 1015.61 1015.61 1015.83 1014.49 1015.92 1015.61 1015.84 1015.29
1010.80 1011.69 1012.74 1013.72 1014.68 1015.79 1015.68 1016.03 1017.22 1017.69 1018.07 1019.00 1019.35 1019.60 1019.55 1019.54 1019.72 1019.72 1019.69 1019.77 1020.13 1020.08 1020.16 1020.15 1019.63 1019.37 1019.23 1018.85 1018.70 1018.56 1018.52 1018.48 1018.00 1017.66 1017.03 1016.39 1015.67 1015.43 1014.98 1015.13 1014.96 1015.32 1015.35 1015.26 1015.58 1015.20 1014.76 1015.30 1014.72
1011.68 1013.47 1015.08 1016.17 1016.69 1016.57 1015.65 1016.21 1016.93 1017.28 1017.88 1018.37 1018.93 1019.36 1019.46 1019.44 1019.57 1019.68 1019.86 1020.02 1020.11 1020.30 1020.54 1020.59 1020.15 1019.87 1019.60 1019.39 1019.17 1018.90 1018.62 1018.45 1018.36 1017.93 1017.76 1016.95 1016.27 1015.85 1015.55 1015.26 1015.18 1014.97 1014.57 1014.81 1015.05 1014.86 1014.89 1014.60 1014.35
1012.73 1014.15 1015.79 1017.02 1017.85 1017.27 1016.06 1016.54 1016.94 1017.13 1017.45 1017.81 1018.40 1018.77 1019.15 1019.32 1019.40 1019.78 1020.01 1020.06 1020.33 1020.56 1020.76 1020.70 1020.44 1020.32 1020.12 1019.96 1019.87 1019.56 1019.30 1019.09 1018.81 1018.45 1017.90 1017.61 1017.20 1016.86 1016.36 1015.45 1015.33 1014.84 1014.67 1014.39 1014.26 1014.42 1014.39 1014.03 1014.15
1013.22 1014.35 1015.43 1016.86 1017.77 1018.15 1017.35 1017.29 1017.35 1017.49 1017.64 1017.99 1018.41 1018.70 1018.91 1019.12 1019.35 1019.57 1019.80 1020.18 1020.57 1020.79 1020.78 1020.65 1020.64 1020.61 1020.49 1020.33 1020.12 1019.97 1019.82 1019.66 1019.52 1019.20 1018.82 1018.44 1017.98 1017.38 1016.69 1016.16 1015.80 1015.32 1015.03 1014.72 1014.23 1014.50 1014.32 1014.06 1013.87
1013.24 1014.20 1015.87 1017.54 1018.58 1018.82 1017.85 1017.30 1016.97 1017.52 1017.62 1017.86 1018.16 1018.42 1018.53 1018.71 1019.02 1019.45 1019.80 1020.28 1020.50 1020.63 1020.69 1020.64 1020.60 1020.56 1020.57 1020.49 1020.31 1020.13 1019.93 1019.75 1019.60 1019.47 1019.24 1018.83 1018.44 1018.02 1017.41 1016.77 1016.34 1015.97 1015.65 1015.34 1014.97 1014.69 1014.29 1014.08 1013.80
1013.96 1014.77 1016.29 1017.74 1018.72 1019.19 1018.81 1017.51 1015.93 1016.33 1016.62 1016.90 1017.24 1017.36 1017.63 1018.01 1018.48 1018.99 1019.48 1019.86 1020.12 1020.37 1020.59 1020.77 1020.49 1020.56 1020.56 1020.38 1020.25 1020.11 1019.93 1019.75 1019.63 1019.48 1019.26 1019.00 1018.62 1018.21 1017.89 1017.45 1016.85 1016.30 1015.88 1015.61 1015.51 1015.31 1014.60 1014.26 1013.95
1014.32 1015.25 1016.45 1018.26 1019.13 1019.26 1018.88 1017.26 1015.69 1015.41 1015.64 1016.01 1016.13 1016.44 1016.67 1017.32 1017.71 1018.31 1019.04 1019.57 1019.96 1020.28 1020.43 1020.38 1020.48 1020.43 1020.43 1020.24 1020.11 1020.00 1019.91 1019.80 1019.66 1019.49 1019.24 1019.01 1018.77 1018.37 1017.94 1017.59 1017.21 1016.76 1016.25 1015.96 1015.60 1015.49 1015.12 1014.79 1014.44
Wind_Speed
5 3 3 4 5 5 3 6 2 13 5 16 6 6 6 3 4 5 1 12 18 16 13 15 19 19 19 18 17 15 15 15 15 15 14 13 12 12 11 11 10 11 12 11 11 10 10 10 11
4 3 4 2 5 2 7 4 9 15 13 9 10 4 7 4 5 9 10 15 18 17 14 13 19 19 19 19 17 15 14 14 14 14 13 12 11 11 10 9 9 10 9 8 7 7 7 7 8
3 1 4 5 4 4 6 6 8 7 13 13 6 4 4 4 10 10 12 16 16 14 13 15 19 19 19 19 18 16 14 14 14 13 12 11 10 9 8 8 7 9 8 7 6 5 4 4 4
2 5 5 5 4 9 8 9 5 8 9 7 7 7 2 6 11 11 19 17 14 12 12 18 20 19 19 20 18 16 16 14 13 13 12 10 10 9 8 8 7 7 8 7 6 5 4 4 5
4 4 4 1 5 8 11 16 8 6 6 2 2 3 4 6 19 23 20 15 16 15 12 13 19 20 19 18 18 16 15 15 14 13 12 11 10 9 8 8 8 9 8 8 8 6 5 6 7
4 4 5 3 7 7 7 6 3 9 13 10 9 5 5 13 21 17 17 14 13 16 15 12 18 18 19 19 17 15 14 13 12 12 12 12 11 10 10 9 9 9 9 9 9 8 8 9 10
6 5 4 4 7 8 5 4 6 11 6 5 6 6 6 6 14 17 15 13 13 12 13 9 10 14 17 16 16 15 15 13 13 12 12 12 11 11 11 10 10 10 9 9 9 9 9 11 12
6 5 5 3 5 6 10 6 2 12 2 5 5 6 7 7 11 13 12 12 12 11 9 11 6 5 6 8 16 15 14 13 13 13 12 12 12 12 12 10 10 11 11 11 10 11 11 12 12
3 5 3 4 4 5 8 7 4 5 11 6 3 4 6 12 12 14 11 9 8 9 10 8 5 5 5 4 6 9 13 14 13 12 13 10 4 6 9 10 12 13 13 12 12 12 12 11 12
5 4 6 4 5 4 6 5 4 6 9 6 4 1 8 17 17 16 12 9 7 9 8 8 8 6 6 7 4 4 4 2 3 4 4 3 4 5 8 10 14 14 13 13 12 12 12 11 5
1 5 5 3 3 6 5 5 2 12 4 7 11 8 8 10 10 8 4 13 15 11 9 12 13 11 9 7 5 3 3 3 3 5 4 3 3 4 4 3 4 4 10 4 6 6 5 6 5
2 6 6 6 2 4 3 4 3 2 11 10 13 8 20 13 15 16 12 4 4 8 9 10 10 10 10 6 6 6 5 5 4 6 7 4 3 4 5 3 4 4 3 4 5 3 5 6 8
3 2 2 5 3 3 2 5 6 4 4 4 17 21 18 12 9 13 11 13 8 7 5 9 12 13 13 8 7 7 7 6 7 6 7 6 5 5 5 6 4 5 4 4 5 4 5 5 6
4 3 3 4 4 2 4 2 6 5 10 18 23 22 21 21 14 11 15 12 14 10 10 3 3 6 5 8 9 7 8 8 6 7 8 10 8 7 7 6 5 5 5 5 5 5 5 6 5
2 5 7 4 2 2 3 6 3 7 21 20 21 18 22 19 19 16 14 12 13 9 9 8 3 7 3 5 5 5 6 7 7 7 10 10 10 8 8 7 7 8 5 7 4 5 5 5 6
7 6 4 7 4 4 7 9 9 10 25 19 19 17 20 19 17 16 14 14 14 10 12 9 8 7 6 5 6 5 4 4 5 5 6 10 11 9 7 6 6 8 4 4 3 5 5 8 4
7 3 4 11 8 6 5 4 16 22 25 18 16 16 17 15 15 11 8 5 5 9 12 10 9 7 1 3 6 7 3 3 6 5 6 8 12 12 7 7 6 6 5 4 3 4 3 3 2
5 3 6 5 2 7 2 1 9 14 16 16 14 14 13 15 11 7 5 7 10 11 10 8 8 10 11 7 6 5 3 2 7 6 4 6 7 8 6 7 6 4 3 3 1 2 2 1 1
3 1 5 6 6 5 2 3 13 11 12 9 9 14 15 15 14 10 8 9 9 9 11 11 9 10 8 6 6 4 4 4 5 9 11 6 5 7 7 5 4 3 4 4 0 1 2 1 3
7 6 6 4 9 6 3 6 8 8 8 7 7 9 9 7 8 10 11 12 11 9 10 11 10 11 9 6 5 4 3 3 8 7 11 13 11 7 9 10 8 8 7 5 2 4 2 3 4
4 7 4 1 5 2 2 4 7 8 10 9 8 7 8 8 8 9 13 13 10 12 10 7 7 7 7 7 6 4 5 5 5 7 7 8 7 5 5 8 6 7 7 7 7 7 6 2 2
4 1 4 5 5 2 4 4 1 7 6 8 6 6 6 7 8 11 9 8 11 8 7 6 6 6 7 7 6 10 6 5 4 4 5 7 11 9 5 3 4 15 4 5 7 4 3 1 2
4 1 3 1 3 4 6 4 3 9 2 1 3 5 6 6 8 8 9 8 7 7 6 6 6 7 6 6 6 5 5 3 3 4 7 8 8 10 12 4 4 4 4 3 8 5 2 1 2
2 6 9 7 4 3 2 5 5 5 7 4 3 3 5 6 6 6 7 7 6 6 5 5 6 7 7 9 8 7 7 5 5 6 6 5 5 5 9 10 8 3 2 5 6 8 10 6 5
10 8 4 6 5 7 5 5 3 7 12 10 10 8 7 6 6 6 6 5 6 6 5 4 6 7 7 8 8 7 8 7 6 5 5 8 7 6 8 7 5 3 5 4 7 5 6 6 5
3 6 7 5 3 6 6 1 4 10 13 11 10 8 7 6 5 6 6 5 5 4 4 4 6 7 7 7 7 7 7 5 4 5 5 4 5 6 7 8 6 7 8 7 4 4 4 4 4
3 2 5 4 2 3 2 4 4 6 8 9 9 8 8 7 7 7 6 5 5 4 4 5 5 5 6 6 6 7 6 7 6 7 5 4 5 6 7 7 8 9 9 10 4 3 6 7 8
6 4 4 4 3 3 4 5 4 11 11 9 10 10 9 8 7 7 6 7 5 5 4 4 3 3 3 4 4 3 4 4 4 4 6 6 5 6 7 8 8 8 7 9 9 6 5 3 4
4 3 5 4 5 5 2 6 5 9 12 15 12 14 13 12 10 9 8 7 7 6 5 3 3 2 2 2 1 2 3 4 4 4 4 4 5 6 6 6 7 8 10 6 4 7 7 8 7
2 3 5 6 6 1 4 8 4 11 10 13 15 14 14 10 12 11 8 8 7 6 5 5 3 2 2 2 2 2 2 2 3 4 4 4 4 5 5 6 6 7 7 9 9 7 7 7 9
Wind_Direction
307 289 141 56 52 62 262 223 210 184 212 233 296 255 138 113 126 174 82 137 139 143 150 147 141 134 130 131 132 131 126 122 120 118 117 114 111 108 109 113 118 122 126 128 129 126 117 109 104
332 331 49 80 91 52 271 197 191 192 221 156 203 254 54 70 76 124 109 149 147 142 147 148 142 138 136 137 137 135 131 127 125 124 123 121 120 121 120 123 126 126 130 129 129 129 124 119 121
271 124 93 125 124 188 236 221 178 186 178 181 133 29 96 86 114 141 131 141 140 140 146 150 144 141 140 141 141 140 140 136 134 132 132 134 135 135 135 134 137 141 143 146 151 157 158 157 163
17 16 24 74 276 262 232 257 194 172 224 289 126 66 69 160 147 136 135 141 133 136 148 148 146 146 146 146 147 147 146 144 143 143 145 149 152 153 155 155 155 159 162 165 173 188 212 225 230
35 66 54 337 253 265 257 248 147 156 179 170 191 92 53 33 110 128 136 138 136 142 147 148 150 150 151 152 152 153 152 154 154 157 159 163 167 168 170 172 171 173 179 183 185 200 228 249 256
17 96 48 305 264 271 249 233 106 105 114 112 83 80 39 131 120 136 138 142 142 143 151 154 156 155 155 156 156 157 157 159 162 166 169 171 176 179 182 182 182 182 186 193 199 205 217 233 246
119 79 214 266 286 307 307 23 81 101 137 27 137 94 125 155 137 140 141 136 137 137 148 154 161 162 160 158 157 162 162 167 170 175 178 179 183 188 190 192 193 194 195 200 204 211 226 237 244
109 98 334 325 320 352 336 52 285 94 81 105 345 131 157 166 144 132 125 130 136 135 144 158 152 150 152 166 164 169 169 174 178 182 186 190 191 194 200 201 204 207 207 209 216 222 227 236 252
108 63 325 286 322 293 318 69 3 33 78 49 42 71 146 134 123 122 123 115 127 147 149 148 139 135 129 135 172 179 180 183 188 193 194 196 194 206 211 211 212 214 214 217 220 230 238 244 254
87 98 217 225 254 40 42 50 106 87 94 44 74 124 121 138 134 137 143 142 159 160 170 161 150 156 157 165 170 178 196 206 225 225 233 227 222 220 219 224 220 217 220 220 225 232 242 249 248
159 193 152 251 243 61 24 52 44 117 32 188 174 173 149 102 73 91 127 166 178 173 175 183 175 168 170 177 171 176 190 185 200 227 238 254 264 266 246 259 256 238 226 220 227 238 236 252 244
280 236 199 203 330 47 39 133 56 169 197 178 175 144 58 64 67 67 57 111 181 175 193 184 186 178 183 166 182 187 192 196 197 209 207 200 231 253 263 249 245 247 258 254 240 238 240 246 267
162 289 117 114 110 102 132 314 150 201 166 108 58 59 71 54 62 69 59 42 51 204 203 200 190 194 183 179 186 187 204 203 209 204 210 199 208 228 238 239 217 234 224 233 254 244 253 247 245
299 120 33 20 355 328 139 241 93 292 82 81 73 65 60 55 36 56 33 31 28 360 349 6 223 248 232 192 185 208 193 206 201 210 218 213 211 215 217 222 229 239 221 224 221 232 241 259 256
254 17 0 323 316 289 111 346 234 182 92 89 84 76 67 57 39 35 39 40 34 359 352 0 227 179 228 236 223 201 222 198 207 217 214 218 216 215 219 214 217 231 222 235 230 242 245 262 260
16 48 27 292 85 242 83 281 288 126 108 104 95 84 73 60 52 33 20 21 8 9 18 1 11 128 125 86 49 21 317 285 222 219 227 225 230 229 223 224 212 222 225 225 234 240 242 241 241
2 253 245 300 204 141 109 275 44 117 113 117 110 102 96 84 66 56 26 35 2 23 27 12 10 344 324 172 206 168 201 290 263 221 208 219 232 230 227 229 230 204 199 204 222 251 211 235 248
273 316 278 218 229 74 86 52 66 104 113 117 112 109 106 102 96 103 102 36 30 34 36 23 10 0 354 312 282 313 11 270 284 272 213 227 223 224 229 250 247 240 256 267 235 211 82 163 202
238 6 20 14 359 97 113 40 116 102 85 92 112 130 136 129 126 121 93 67 58 40 44 26 22 6 11 340 341 330 308 327 338 326 332 309 253 219 206 207 260 272 255 251 179 139 155 12 14
33 56 355 341 4 75 32 53 102 79 78 88 77 61 68 81 82 91 96 94 74 59 40 30 19 11 1 354 330 324 355 16 34 6 344 359 348 356 50 47 30 352 317 295 99 60 38 35 49
31 81 68 100 308 49 105 359 102 68 85 83 69 82 68 72 69 61 57 55 55 49 49 33 12 19 12 353 343 22 40 35 9 356 7 350 346 25 29 73 62 24 334 349 1 50 80 14 77
76 346 54 23 63 258 80 267 135 110 59 65 42 53 67 53 47 50 52 50 48 35 26 30 21 35 31 12 31 57 64 52 2 349 349 8 21 18 334 80 77 284 282 142 107 13 326 66 320
184 45 26 322 23 45 352 73 290 115 90 106 98 75 65 72 68 59 55 62 55 40 35 16 23 25 33 47 56 52 55 27 358 346 18 21 27 17 31 22 102 158 141 118 90 116 333 4 149
318 28 18 34 76 9 221 176 215 195 177 152 132 154 145 135 125 106 83 71 63 42 37 13 31 30 22 38 37 52 58 49 38 9 12 355 19 21 31 24 40 17 200 193 192 143 145 188 203
63 57 354 355 8 223 295 71 242 123 138 159 167 183 192 162 137 132 123 115 96 72 60 52 38 34 26 34 33 30 37 37 39 26 16 14 12 11 3 19 5 349 354 247 238 179 189 207 235
74 134 151 221 226 274 334 141 204 154 163 163 167 165 169 168 166 160 157 136 113 111 102 82 61 44 31 34 28 25 31 28 22 19 16 4 8 353 340 5 357 347 347 293 241 223 224 268 266
313 14 178 125 322 73 208 68 43 159 165 164 166 172 184 191 184 183 162 165 164 154 133 114 89 68 47 42 34 28 28 35 30 19 8 360 355 354 349 352 357 4 6 357 334 261 242 230 242
147 176 42 6 198 239 287 207 219 189 186 187 188 198 206 204 194 188 177 188 190 171 160 124 122 114 79 61 43 31 17 33 38 38 21 7 355 356 356 350 353 360 7 358 351 341 348 335 309
5 35 65 115 137 164 312 280 233 179 189 194 203 205 204 202 197 188 185 194 187 177 166 180 166 117 69 62 64 38 4 10 21 26 16 7 360 4 5 349 347 354 352 357 350 338 348 358 354
144 130 113 117 276 130 151 269 235 187 184 192 211 209 212 200 199 188 178 182 180 175 173 188 189 143 263 257 282 290 316 354 11 355 360 10 9 1 5 2 1 355 2 351 350 354 357 2 2